sat.trackr.live / text

‹ back to catalog

KUIPER-00611

NORAD 69771 · 2026-151J

PAYLOAD ACTIVE UNKNOWN

§ Identity

Operator
Country
US
Launch date
2026-07-02
Launch site
AFETR
Launch vehicle
Mass (kg)
RCS (m²)

External: N2YO · Heavens-Above · Gunter

§ Orbital elements

Epoch: 2026-09-20T05:18:27.467136Z

Period
97.30 min
Inclination
51.8986°
Eccentricity
0.0000835
Mean motion
14.79941311 rev/d
Perigee alt
628.9 km
Apogee alt
630.1 km
Semi-major
7,007.6 km
B*
-3.0474e-4
RAAN
230.4104°
Arg perigee
36.2438°
Mean anomaly
323.8580°
Rev number
1,213

§ Raw data

KUIPER-006111 69771U 26151J   26263.22115124 -.00002544  00000+0 -30474-3 0  99992 69771  51.8986 230.4104 0000835  36.2438 323.8580 14.79941311 12131

JSON: /api/v1/satellites/69771 · /tle

For live sub-satellite position, see the globe view (requires WebGL).

§ Visibility from observer

Set your observer location to see the next 7 days of passes ≥ 10°. The values pass through the URL so the page stays shareable.

No JS? Fill the form by hand. The geolocation button needs JavaScript.